This demonstration page uses our WeatherBlox Daily Observations layout. Learn more.

Left ArrowRight Arrow

41.86663, -103.66717

Hourly Observations for January 2, 2020

Temp ( °F °C ) Dew Point ( °F °C ) Humidity (%) Winds ( mph kmh ) Pressure ( in mb ) Visibility ( mi km ) Precip ( " mm )
12:53 am 00:53 Clear 27 -2.8 24 -4.4 89 89 NW 5 7 29.52 1000 10 16.0934 0 0
1:53 am 01:53 Clear 29 -1.7 26 -3.3 89 89 NW 7 11 29.55 1001 10 16.0934 0 0
2:53 am 02:53 Clear 27 -2.8 24 -4.4 89 89 NW 7 11 29.59 1002 10 16.0934 0 0
3:53 am 03:53 Clear 28 -2.2 24 -4.4 85 85 WNW 8 13 29.62 1003 10 16.0934 0 0
4:53 am 04:53 Clear 26 -3.3 23 -5 88 88 NW 6 9 29.65 1004 10 16.0934 0 0
5:53 am 05:53 Clear 24 -4.4 22 -5.6 91 91 NNW 6 9 29.67 1005 10 16.0934 0 0
6:53 am 06:53 Clear 25 -3.9 22 -5.6 88 88 NW 7 11 29.7 1006 10 16.0934 0 0
7:53 am 07:53 Sunny 26 -3.3 23 -5 88 88 NNW 8 13 29.73 1007 10 16.0934 0 0
8:53 am 08:53 Mostly Sunny 32 0 28 -2.2 85 85 NW 7 11 29.77 1008 10 16.0934 0 0
9:53 am 09:53 Mostly Cloudy 36 2.2 30 -1.1 79 79 WNW 10 17 29.78 1009 10 16.0934 0 0
10:53 am 10:53 Mostly Cloudy 39 3.9 31 -0.6 73 73 WNW 14 22 29.77 1008 10 16.0934 0 0
11:53 am 11:53 Sunny 41 5 30 -1.1 65 65 W 16 26 29.75 1007 10 16.0934 0 0
12:53 pm 12:53 Sunny 44 6.7 29 -1.7 55 55 W 14 22 29.72 1006 10 16.0934 0 0
1:53 pm 13:53 Mostly Cloudy 46 7.8 29 -1.7 51 51 WNW 9 15 29.7 1006 10 16.0934 0 0
2:53 pm 14:53 Mostly Cloudy 44 6.7 27 -2.8 51 51 W 13 20 29.72 1007 10 16.0934 0 0
3:53 pm 15:53 Mostly Sunny 41 5 24 -4.4 51 51 WNW 10 17 29.75 1008 10 16.0934 0 0
4:53 pm 16:53 Clear 37 2.8 23 -5 57 57 W 14 22 29.8 1009 10 16.0934 0 0
5:53 pm 17:53 Clear 35 1.7 22 -5.6 59 59 W 10 17 29.83 1010 10 16.0934 0 0
6:53 pm 18:53 Partly Cloudy 33 0.6 23 -5 66 66 WNW 10 17 29.85 1011 10 16.0934 0 0
7:53 pm 19:53 Cloudy 35 1.7 23 -5 61 61 WNW 14 22 29.87 1012 10 16.0934 0 0
8:53 pm 20:53 Partly Cloudy 34 1.1 24 -4.4 67 67 WNW 12 19 29.9 1012 10 16.0934 0 0
9:53 pm 21:53 Mostly Cloudy 33 0.6 24 -4.4 70 70 WNW 13 20 29.93 1013 10 16.0934 0 0
10:53 pm 22:53 Cloudy 33 0.6 26 -3.3 75 75 W 9 15 29.94 1014 10 16.0934 0 0
11:53 pm 23:53 Mostly Cloudy 32 0 27 -2.8 82 82 WNW 12 19 29.96 1015 10 16.0934 0 0

Powered by AerisWeather